Regional Weather Roundup
Issued by NWS

Home | Current Version | Previous Version | Graphics & Text | Print | Product List | Glossary On
Versions: 1 2 3 4 5 6 7 8 9 10 11 12 13 14 15 16 17 18 19 20 21 22 23 24 25 26 27 28 29 30 31 32 33 34 35 36 37 38 39 40 41 42 43 44 45 46 47 48 49 50
312
ASUS43 KFSD 241010
RWRSD

WEATHER ROUNDUP FOR SOUTH DAKOTA
NATIONAL WEATHER SERVICE SIOUX FALLS SD
500 AM CDT TUE MAY 24 2016

NOTE: "FAIR" INDICATES FEW OR NO CLOUDS BELOW 12,000 FEET WITH NO
SIGNIFICANT WEATHER AND/OR OBSTRUCTIONS TO VISIBILITY.


SDZ001>005-009-010-012>017-241100-
NORTHWEST AND NORTH CENTRAL SOUTH DAKOTA

CITY           SKY/WX    TMP DP  RH WIND       PRES   REMARKS
BUFFALO          N/A     46  35  65 NW7       29.80S
FAITH            N/A     46  40  79 NW7       29.82R
MOBRIDGE       CLEAR     49  44  83 N3        29.77R
$$

SDZ012>016-024>037-041>051-057-063-072>074-241100-
SOUTHWEST AND SOUTH CENTRAL SOUTH DAKOTA

CITY           SKY/WX    TMP DP  RH WIND       PRES   REMARKS
RAPID CTY ARPT CLEAR     45  35  68 NW12      29.85R
PIERRE         CLEAR     48  42  80 N6        29.75S
CUSTER         CLEAR     40  27  59 NW6       29.92R
ELLSWORTH AFB  CLEAR     50  35  57 NW14      29.85R
PHILIP         CLEAR     43  39  86 W6        29.80R
PINE RIDGE     CLEAR     41  35  79 CALM      29.86R
WINNER         FAIR      57  41  55 S5        29.80R
$$

SDZ004>011-016>023-039-040-241100-
NORTHEAST SOUTH DAKOTA

CITY           SKY/WX    TMP DP  RH WIND       PRES   REMARKS
ABERDEEN       CLEAR     57  48  72 NE7       29.78F
WATERTOWN      CLEAR     56  54  93 SE5       29.79R FOG
BROOKINGS      FOG       61  60  97 S8        29.80R VSB 1/2
SISSETON         N/A     64  55  72 NW25G31   29.77R
$$

SDZ017-020-022-023-036>040-048>070-241100-
SOUTHEAST SOUTH DAKOTA

CITY           SKY/WX    TMP DP  RH WIND       PRES   REMARKS
SIOUX FALLS    PTCLDY    62  60  93 S9        29.80S
HURON          FOG       52  52 100 CALM      29.77R VSB 1/4
CHAMBERLAIN    CLEAR     55  51  85 CALM      29.79R
MITCHELL       FOG       57  56  96 CALM      29.79R VSB 1/2
YANKTON        CLEAR     59  55  88 S6        29.79S
$$

ABBREVIATIONS USED IN REMARKS
   TC - TEMPERATURE IN CELSIUS
  WCI - WIND CHILL INDEX
   HX - HEAT INDEX
  VSB - VISIBILITY





USA.gov is the U.S. government's official web portal to all federal, state and local government web resources and services.